Regional Weather Roundup
Issued by NWS

Home | Current Version | Previous Version | Graphics & Text | Print | Product List | Glossary On
Versions: 1 2 3 4 5 6 7 8 9 10 11 12 13 14 15 16 17 18 19 20 21 22 23 24 25 26 27 28 29 30 31 32 33 34 35 36 37 38 39 40 41 42 43 44 45 46 47 48 49 50
000
ASUS43 KLOT 201408
RWRIL

ILLINOIS REGIONAL WEATHER ROUNDUP
NATIONAL WEATHER SERVICE CHICAGO/ROMEOVILLE IL
800 AM CST MON NOV 20 2017

NOTE: "FAIR" INDICATES FEW OR NO CLOUDS BELOW 12,000 FEET WITH NO
SIGNIFICANT WEATHER AND/OR OBSTRUCTIONS TO VISIBILITY.

* THESE STATIONS ARE NOT UNDER NWS QUALITY CONTROL. THEY ALSO MAY NOT
  REPORT WEATHER SUCH AS PRECIPITATION OR FOG.

ILZ001-002-007-009-015-016-024-201500-
NORTHWEST ILLINOIS

CITY           SKY/WX    TMP DP  RH WIND       PRES   REMARKS
MOLINE         CLOUDY    38  27  64 S7        29.90F WCI  33
STERLING*      CLEAR     35  28  75 VRB3        N/A
SAVANNA*       CLEAR     33  28  83 S8        29.89F WCI  25
$$

ILZ003-004-008-010-011-017-018-201500-
NORTH CENTRAL ILLINOIS

CITY           SKY/WX    TMP DP  RH WIND       PRES   REMARKS
ROCKFORD       MOCLDY    33  27  78 S10       29.92S WCI  25
FREEPORT*      CLEAR     34  27  77 S18       29.89F WCI  23
ROCHELLE*      CLEAR     32  28  84 S9        29.92S WCI  25
DE KALB*       CLEAR     31  27  86 S10       29.93R WCI  22
PERU*          SUNNY     35  26  69 SW13      29.96F WCI  26
$$

ILZ005-006-012>014-019>023-201500-
NORTHEAST ILLINOIS

CITY           SKY/WX    TMP DP  RH WIND       PRES   REMARKS
CHICAGO-OHARE  MOSUNNY   36  25  64 SW13      29.94S WCI  27
CHICAGO-MIDWAY MOSUNNY   36  26  67 SW14      29.96F WCI  27
AURORA         SUNNY     34  26  72 S15       29.94F WCI  24
LANSING*       SUNNY     35  28  76 SW18G25   29.98F WCI  24
JOLIET*        SUNNY     37  28  71 SW12G17   29.97F WCI  29
WAUKEGAN       MOSUNNY   36  26  67 SW15      29.89F WCI  27
DUPAGE AIRPORT SUNNY     33  27  78 S10       29.94S WCI  25
KANKAKEE*      SUNNY     35  26  70 S13G18    30.03S WCI  26
WHEELING       SUNNY     37  26  64 SW12      29.95S WCI  29
MORRIS*        SUNNY     35  27  73 SW20      29.95F WCI  24
ROMEOVILLE*    SUNNY     35  28  73 SW14G20   29.96F WCI  26
NORTHERLY ISL    N/A     36  25  65 S6          N/A  WCI  31
$$

LMZ740>746-201500-
SOUTHERN LAKE MICHIGAN

STATION/POSITION SKY/WX   TEMP    WIND        PRES    VSBY  WAVE
                          AIR SEA DIR/SP/G                  HT/PER
                          (F)     (DEG/KT/KT) (MB)    (MI)  (FT/S)
SOUTHERN BUOY              42 49  260/ 21/ 27 1013.2          6/ 6
HARRISON CRIB              38     210/ 27/ 30   N/A
BURNHAM HARBOR             37     200/  7/ 14   N/A
CALUMET HARBOR             36     190/ 15/ 20 1013.6F
BURNS HARBOR               36     190/ 19/ 25 1015.2F
MICHIGAN CITY              35     180/ 19/ 24   N/A
$$

ILZ025>027-034>036-040-047-049-050-058-095>099-201500-
WEST-CENTRAL ILLINOIS

CITY           SKY/WX    TMP DP  RH WIND       PRES   REMARKS
QUINCY         CLEAR     40  28  62 S16       29.99S
GALESBURG*     CLOUDY    36  29  76 S12G17    29.95S WCI  28
MACOMB*        CLEAR     39  29  65 S17       29.98F WCI  30
JACKSONVILLE*  CLOUDY    35  25  67 S12       30.04S WCI  27
PITTSFIELD*    CLOUDY    40  28  60 S10       30.04R
$$

ILZ028>032-037-038-041>044-048-051>054-059>061-201500-
CENTRAL ILLINOIS

CITY           SKY/WX    TMP DP  RH WIND       PRES   REMARKS
PONTIAC        MOSUNNY   37  28  71 S17       30.01S WCI  27
BLOOMINGTON    CLOUDY    35  26  69 S18       30.03F WCI  24
DECATUR        CLOUDY    35  24  64 S15       30.08F WCI  25
PEORIA         CLOUDY    34  26  72 S12       30.00S WCI  25
LACON*         CLOUDY    38  26  63 SW8       29.98S WCI  32
LINCOLN*       CLOUDY    35  28  75 S12       30.05S WCI  26
SPRINGFIELD    CLOUDY    38  26  62 S15       30.06S WCI  29
TAYLORVILLE    CLOUDY    33  25  72 S14       30.08F WCI  23
$$

ILZ033-039-045-046-055>057-062-063-201500-
EAST-CENTRAL ILLINOIS

CITY           SKY/WX    TMP DP  RH WIND       PRES   REMARKS
CHAMPAIGN      CLOUDY    33  26  75 S16       30.09R WCI  23
DANVILLE*      CLOUDY    33  23  67 S16       30.07S WCI  23
RANTOUL*       CLOUDY    36  27  70 S13G18    30.07S WCI  28
MATTOON        CLOUDY    34  24  67 S15       30.11S WCI  24
PARIS*         CLOUDY    34  25  70 S16       30.14R WCI  23
$$

ILZ079-100>102-201500-
SOUTHWEST ILLINOIS

CITY           SKY/WX    TMP DP  RH WIND       PRES   REMARKS
ALTON          PTSUNNY   36  25  64 S15       30.10F WCI  26
BELLEVILLE     CLOUDY    34  23  63 SE5       30.13S WCI  30
CAHOKIA*       CLOUDY    37  23  56 S6        30.12F WCI  32
SPARTA*        CLOUDY    36  23  58 S12       30.18R WCI  28
$$

ILZ064>066-069>071-074>076-080>082-084>086-088>090-092>094-201500-
SOUTH-CENTRAL ILLINOIS

CITY           SKY/WX    TMP DP  RH WIND       PRES   REMARKS
CARBONDALE     CLOUDY    34  28  79 S7        30.20S WCI  28
CAIRO*         CLOUDY    34  27  75 S5        30.24S WCI  30
EFFINGHAM*     CLOUDY    34  24  68 SE7       30.16F WCI  28
MARION         MOSUNNY   34  28  80 S8        30.22S WCI  27
MT. VERNON     CLOUDY    33  31  92 S10       30.18S WCI  25
CENTRALIA*     CLOUDY    36  26  66 S13G18    30.14S WCI  28
SALEM*         CLOUDY    38  23  56 S8        30.15S WCI  32
METROPOLIS*    CLOUDY    32  26  76 CALM      30.26R
$$

ILZ067-068-072-073-078-083-087-091-201500-
SOUTHEAST ILLINOIS

CITY           SKY/WX    TMP DP  RH WIND       PRES   REMARKS
LAWRENCEVILLE  SUNNY     33  26  75 S9        30.21R WCI  25
FLORA*         CLOUDY    33  26  75 S9        30.16R WCI  26
FAIRFIELD*     CLOUDY    33  27  77 S6        30.19R WCI  28
HARRISBURG*    CLOUDY    33  27  76 S6        30.23S WCI  28
ROBINSON*      SUNNY     31  24  72 S8        30.19R WCI  24
CARMI*         CLOUDY    32  28  84 S8        30.22R WCI  25
$$

ABBREVIATIONS USED IN REMARKS
   TC - TEMPERATURE IN CELSIUS
  WCI - WIND CHILL INDEX
   HX - HEAT INDEX
  VSB - VISIBILITY
$$





USA.gov is the U.S. government's official web portal to all federal, state and local government web resources and services.